Theta_e
323 329 343 345 347 348 348 347 348 347 347 347 346 346 347 345 344 344 344 345 347 348 348 347 346 345 345 346 346 346 345 344 344 343 342 342 343 342 350 350 348 347 350
324 329 339 343 346 346 345 345 346 346 346 346 346 345 344 343 342 342 342 342 343 344 344 344 343 342 340 342 343 343 344 342 341 340 340 339 339 343 344 350 348 348 350
324 329 332 338 341 342 343 343 342 342 341 340 342 342 340 339 338 336 335 336 338 339 339 337 336 336 336 337 339 340 338 339 338 337 337 332 331 345 350 349 349 351 350
322 324 328 337 337 337 337 338 338 337 337 337 338 336 334 335 334 333 331 330 331 332 331 330 331 333 332 332 334 335 334 334 332 331 327 331 332 344 349 349 349 349 348
318 321 326 335 335 335 335 336 336 334 335 335 333 332 331 329 328 326 325 324 324 325 325 324 325 323 323 323 323 326 326 324 323 320 322 326 329 340 344 345 344 345 345
315 318 327 332 332 332 332 332 331 330 332 330 328 326 325 324 323 322 321 321 322 322 322 322 321 320 319 318 319 318 317 317 315 308 310 320 325 337 341 342 345 345 344
312 315 322 331 329 329 329 328 327 327 327 325 323 322 321 320 320 320 320 319 320 320 320 319 318 317 317 316 316 316 317 315 308 306 309 319 326 342 340 342 342 343 343
310 312 317 326 327 326 325 325 324 323 323 322 320 319 318 318 318 318 317 318 318 317 317 317 316 316 316 316 315 314 313 312 302 302 305 315 322 336 341 341 340 340 340
308 309 310 314 319 324 324 323 321 320 320 319 318 317 315 314 314 314 314 315 315 315 315 315 314 313 313 313 312 311 310 309 298 300 302 306 320 326 331 334 336 337 338
304 305 305 306 309 309 312 320 319 317 316 316 314 313 311 310 310 310 310 312 313 313 313 312 310 309 308 309 309 308 306 304 297 298 299 306 316 320 323 322 324 328 331
302 302 302 303 303 303 305 310 315 314 313 312 310 309 304 298 298 301 307 308 308 308 309 308 306 304 302 303 303 303 301 296 296 296 298 308 313 317 319 319 319 320 321
298 298 300 300 300 300 304 303 300 302 299 298 297 297 295 294 296 300 303 303 303 302 303 304 302 300 296 292 292 296 293 293 293 294 296 306 310 314 316 317 317 318 319
297 297 299 298 298 297 299 297 295 296 294 295 294 294 294 295 294 292 291 291 290 293 290 292 291 291 290 291 291 291 291 291 290 292 295 303 306 310 314 316 316 317 318
292 295 296 296 297 296 294 296 294 294 293 292 293 294 292 291 290 290 289 289 288 288 287 288 288 289 289 290 290 290 289 289 289 291 293 299 303 307 310 313 315 316 317
292 294 294 295 296 297 293 294 294 293 294 292 292 293 292 290 289 289 288 288 287 287 287 287 287 287 288 289 289 289 288 288 289 290 291 296 299 303 305 308 311 314 316
294 293 294 295 295 295 293 294 294 293 293 291 290 291 291 290 288 288 287 287 286 286 286 287 286 286 286 287 288 288 288 288 289 289 289 290 297 300 303 306 309 311 312
295 295 293 294 294 294 293 294 293 293 293 291 290 290 290 290 288 287 287 286 286 286 286 286 286 286 285 287 286 287 288 288 288 288 289 289 290 296 300 304 306 308 309
296 294 294 295 294 294 294 293 293 292 291 291 290 289 289 289 288 287 286 286 285 285 285 285 284 284 284 284 284 285 286 286 287 287 288 288 289 291 296 301 305 305 307
297 295 294 294 293 294 293 292 292 291 291 290 288 288 288 288 288 286 286 285 285 285 284 285 283 283 282 283 284 284 285 284 285 287 287 288 289 290 291 298 301 303 304
297 295 295 294 293 293 292 291 290 289 288 288 288 287 287 287 287 285 285 285 285 284 283 283 282 283 282 282 284 284 283 284 284 284 285 288 288 289 291 291 292 292 298
296 294 293 292 292 293 291 290 290 290 288 286 286 287 286 286 286 285 284 284 284 283 283 282 282 281 281 282 281 281 282 283 284 283 283 284 285 288 290 288 288 288 290
296 295 293 292 292 293 293 293 290 290 286 288 287 286 286 286 285 284 283 283 282 282 282 282 282 281 281 281 279 279 278 280 283 283 283 283 283 285 285 287 288 288 287
295 294 293 292 291 293 293 291 286 286 284 284 284 285 285 286 285 284 283 282 282 282 281 280 281 281 280 280 280 279 276 276 278 281 282 282 282 282 283 284 285 286 286
296 294 293 292 291 292 291 290 288 288 287 287 287 285 283 285 284 284 283 282 281 281 280 281 282 281 280 279 280 282 279 279 277 276 280 280 282 282 282 283 284 285 286
295 293 292 292 291 292 290 290 289 288 287 284 283 283 284 283 283 283 282 281 280 280 280 281 280 280 280 279 279 279 279 278 278 277 275 278 280 281 282 283 283 283 284
290 291 291 290 289 290 289 289 289 288 283 283 283 284 284 283 283 282 282 281 280 280 279 280 280 280 279 279 280 279 279 277 277 276 275 276 276 279 281 282 282 282 283
Wind_Speed
4 6 8 9 11 12 14 13 14 13 13 13 13 13 13 12 11 11 10 10 10 11 12 12 11 11 12 13 13 11 11 12 12 14 14 13 12 9 7 3 5 4 6
8 6 7 10 13 13 13 11 12 12 12 12 13 13 12 11 11 12 11 10 11 11 10 12 12 10 9 10 10 11 12 12 12 13 13 10 13 12 5 2 3 4 6
8 6 6 7 10 11 11 10 9 10 9 8 9 11 10 10 9 8 8 9 10 9 9 9 9 9 9 10 11 10 10 12 13 14 12 6 7 13 3 2 4 6 7
8 6 6 8 10 10 10 8 9 9 8 9 11 9 8 10 10 10 10 9 9 9 9 9 9 10 10 9 10 9 10 13 14 14 6 6 7 10 10 9 10 11 10
8 6 6 11 12 13 12 11 12 11 11 11 11 11 11 11 10 10 10 10 9 9 10 9 10 10 10 10 10 10 11 12 13 10 6 6 6 7 8 10 10 11 11
8 7 9 14 14 14 14 13 13 12 12 12 12 12 11 11 10 10 10 10 11 11 11 10 10 10 10 10 11 11 13 14 13 7 6 7 6 10 7 6 8 8 9
7 6 7 14 15 15 14 14 14 14 14 13 13 12 11 11 11 11 11 10 10 11 10 11 10 10 9 10 11 13 14 13 7 6 6 6 7 9 7 7 8 9 10
9 6 6 11 13 15 15 15 15 15 15 14 14 14 13 13 12 12 11 11 11 11 11 10 11 11 12 12 12 13 14 14 8 7 6 6 15 13 11 11 10 10 11
7 7 5 4 7 11 13 14 14 14 14 15 15 15 15 14 12 12 11 11 10 11 10 11 12 11 12 12 12 14 14 15 7 5 7 5 14 13 13 13 14 14 14
7 7 7 5 5 5 5 11 13 13 13 14 15 15 15 14 13 12 10 10 11 11 10 11 11 12 12 13 13 14 13 13 6 6 5 6 14 13 12 12 13 14 15
7 8 7 7 6 6 5 6 11 14 14 14 13 12 10 5 6 6 10 11 10 10 10 10 10 10 10 11 12 12 11 3 5 4 4 15 14 13 13 12 12 12 13
11 9 9 8 7 6 6 6 6 6 4 5 5 6 5 6 5 5 7 10 9 8 9 9 9 9 7 3 3 8 3 5 4 4 3 14 14 13 12 12 12 12 12
11 9 11 10 9 8 6 4 3 3 3 4 6 6 5 4 4 4 3 3 3 5 2 3 4 3 5 4 4 4 4 4 3 4 7 15 15 14 13 13 13 13 12
14 15 13 12 11 10 5 6 5 5 4 4 5 7 5 4 4 4 3 4 3 2 3 3 2 3 4 4 4 4 4 3 2 3 4 12 14 14 13 13 12 12 12
14 15 15 13 13 11 9 6 5 5 5 5 5 6 5 5 5 4 4 4 3 2 2 2 3 4 5 5 5 5 5 5 5 2 2 9 12 12 11 11 10 11 13
16 17 15 16 13 11 10 9 7 5 5 5 5 5 6 5 5 4 4 4 3 2 2 3 3 4 4 4 5 5 6 5 5 5 3 4 11 10 10 8 10 11 11
18 16 18 17 14 14 13 10 7 7 6 6 6 7 7 6 6 6 5 4 4 3 4 3 4 4 4 4 4 4 4 5 5 5 4 4 5 9 8 8 8 10 11
16 19 18 16 17 16 14 10 8 7 7 7 6 5 7 7 7 6 5 4 4 3 3 3 3 3 3 4 4 4 4 5 5 5 5 3 3 3 5 8 9 10 9
20 18 19 19 19 18 13 10 9 9 8 7 5 5 6 7 7 6 5 5 5 4 3 2 2 2 2 4 4 4 4 4 4 4 6 5 5 4 2 6 9 10 11
18 18 18 16 18 17 11 7 5 6 5 6 7 6 8 6 7 6 5 5 5 4 3 2 3 2 1 3 4 4 4 4 3 2 5 4 5 5 5 5 4 5 11
13 15 18 19 18 15 11 11 8 11 7 5 6 9 9 7 7 6 4 5 5 5 5 4 3 3 4 4 3 4 3 4 3 3 3 4 5 5 7 5 4 3 4
21 21 20 21 19 17 14 11 6 8 4 6 6 7 9 9 8 7 7 5 5 4 5 4 3 2 2 4 3 2 5 5 4 4 3 4 5 4 5 5 6 6 5
17 20 22 23 22 19 16 9 4 5 4 3 5 7 7 9 8 7 7 6 6 4 4 4 4 5 4 2 5 4 3 2 4 4 4 3 5 4 4 5 6 8 6
21 16 18 19 20 18 17 15 15 10 10 8 8 5 6 9 9 7 7 6 6 4 5 5 4 4 4 4 2 2 3 3 1 6 3 4 4 5 4 4 5 5 5
13 17 16 17 17 16 16 16 14 11 7 4 4 9 9 8 9 8 8 8 7 5 5 6 5 5 3 4 3 3 2 1 2 3 7 5 7 2 6 6 4 4 6
7 11 14 17 16 15 17 17 19 17 10 8 8 10 10 7 8 9 8 7 7 6 7 5 6 6 5 4 3 3 3 3 3 3 4 5 11 8 5 7 6 5 4
Wind_Direction
197 179 163 148 127 123 124 126 124 119 112 106 109 107 101 99 91 83 69 63 64 70 74 67 63 51 42 37 36 37 37 33 13 360 354 347 331 320 307 337 8 12 21
149 160 164 163 138 123 119 115 121 121 116 111 116 111 107 105 102 87 73 63 61 62 64 60 55 45 40 36 30 29 30 22 8 357 350 343 333 324 278 302 2 20 21
143 148 147 155 150 147 138 155 143 133 134 137 105 91 102 94 85 88 77 60 59 60 59 56 49 43 32 19 22 26 17 8 4 356 350 347 346 346 51 57 358 27 22
143 138 144 157 156 155 142 139 130 135 138 136 110 109 115 108 104 97 89 80 73 67 59 53 51 45 37 24 8 9 3 360 358 352 350 343 349 356 28 24 22 25 11
141 145 154 156 153 157 156 144 137 141 143 131 125 121 116 113 105 99 92 87 79 69 61 53 49 42 34 28 21 11 5 0 350 346 339 343 351 359 33 25 24 20 9
148 149 160 158 153 152 150 146 141 139 132 129 125 122 117 112 104 94 85 79 77 74 67 59 48 39 36 30 24 9 6 357 355 341 342 339 339 333 341 39 39 30 16
150 153 160 162 159 155 152 150 145 142 136 137 131 126 121 110 104 101 94 89 84 77 71 65 58 54 52 45 36 21 17 19 8 347 349 347 341 3 13 38 32 15 7
146 155 167 164 163 161 157 155 153 150 146 145 136 130 124 116 109 105 99 97 91 82 76 71 64 56 51 46 35 33 27 21 13 1 1 4 359 6 16 21 13 13 356
143 143 143 149 161 165 162 160 157 154 150 145 142 133 128 122 116 113 103 104 94 86 77 71 64 56 50 47 37 31 23 18 16 6 9 355 360 6 4 357 359 1 353
156 158 161 158 151 152 157 160 160 158 157 151 144 142 134 125 123 116 100 104 91 84 80 75 64 56 45 40 33 30 24 15 4 7 5 355 356 353 353 355 352 347 339
182 176 171 168 166 163 157 165 160 161 160 159 152 139 119 122 114 102 107 93 89 82 79 80 70 64 53 42 32 25 22 10 7 356 0 357 354 351 346 350 351 347 337
195 192 180 175 173 169 171 165 163 164 153 145 151 141 137 134 128 110 97 96 90 82 78 74 73 65 64 59 25 20 16 5 357 348 1 353 347 345 340 342 343 345 341
192 187 188 180 177 174 179 168 172 171 163 166 159 151 147 129 119 122 108 90 99 87 69 79 63 58 44 45 29 14 17 355 346 334 342 350 342 341 338 343 340 342 341
189 192 186 185 182 186 165 177 180 176 176 177 174 160 151 147 143 143 134 135 121 126 103 72 52 57 51 31 38 22 6 338 320 315 331 342 337 337 339 340 342 343 345
200 194 191 183 185 186 179 178 178 186 178 174 171 174 158 157 159 151 154 147 141 138 110 85 65 45 37 17 15 4 343 328 323 313 299 331 334 337 340 342 343 353 358
202 199 188 191 187 179 186 182 186 179 173 171 176 184 174 163 157 154 152 149 146 153 122 99 77 54 39 18 357 343 326 324 320 315 312 329 337 340 352 355 7 6 4
204 192 190 188 183 184 186 184 181 182 173 177 184 183 177 170 169 158 157 159 163 142 123 93 58 46 33 0 340 328 314 313 316 321 318 319 319 329 333 356 12 13 7
197 191 188 188 185 185 185 181 180 179 177 182 184 177 181 170 167 159 155 161 161 141 131 101 66 44 19 8 330 313 308 319 321 322 308 309 303 292 339 352 11 5 4
197 188 189 187 186 186 180 177 177 177 182 183 172 175 180 168 172 158 161 159 154 143 122 116 69 61 14 348 314 300 304 314 321 333 313 331 327 333 340 9 43 47 33
196 191 187 185 183 179 170 164 166 174 182 170 180 179 172 177 175 159 163 159 153 137 129 110 107 59 44 322 303 311 309 312 318 314 331 341 335 342 9 38 32 4 6
192 186 186 180 181 171 171 174 185 198 189 184 177 182 176 175 172 169 165 157 161 161 162 147 121 89 31 330 354 340 339 343 104 357 330 6 347 13 39 17 0 4 7
192 191 186 187 178 183 181 182 181 175 182 186 178 182 179 176 174 172 166 175 174 152 144 143 142 129 98 3 99 134 4 334 355 2 349 356 28 18 7 7 1 352 350
198 191 189 185 182 183 177 157 102 99 77 137 185 188 185 179 178 174 173 167 175 157 160 165 158 156 140 49 51 116 26 317 329 327 344 342 353 352 340 345 323 322 321
208 192 189 183 180 181 171 173 178 185 188 198 189 169 169 180 182 178 174 166 167 162 167 170 168 161 137 141 99 103 120 148 336 315 289 307 350 320 303 293 294 286 285
188 189 185 178 178 173 173 179 184 192 188 140 136 153 180 186 184 177 174 171 168 174 178 173 168 169 154 133 138 145 115 144 173 229 302 308 319 240 296 278 260 265 269
166 172 174 173 175 171 177 181 188 191 167 157 165 179 189 186 187 185 174 174 171 174 175 178 169 166 158 144 148 160 167 164 166 174 265 295 300 307 300 282 260 246 238